Home > Weather > Vaasa > Past weeks

Flag for Finland Past Weather in Vaasa, Finland — Yesterday and Last 2 Weeks

Now
55 °F

Passing clouds.


Feels Like: 55 °F
Forecast: 56 / 64 °F
Wind: 1 mph from North

Location: Vaasa Airport

Current Time: Jun 29, 2016 at 1:41:00 AM

Latest Report: Jun 29, 2016 at 12:50 AM


Visibility: N/A

Pressure: 29.86 "Hg

Humidity: 88%

Dew Point: 52 °F

Location of VaasaLocation

Past Weather in Vaasa — Graph

°F

Vaasa Temperature Yesterday

Maximum temperature yesterday: 70 °F (at 1:50 PM)
Minimum temperature yesterday: 55 °F (at 1:50 AM)
Average temperature yesterday: 63 °F

High & Low Weather Summary for the Past Weeks

 TemperatureHumidityPressure
High77 °F (Jun 26, 3:50 PM)100% (Jun 16, 10:20 PM)30.15 "Hg (Jun 16, 10:20 PM)
Low43 °F (Jun 15, 2:50 AM)29% (Jun 15, 6:50 PM)29.24 "Hg (Jun 18, 2:50 PM)
Average60 °F76%29.83 "Hg
* Reported Jun 14 12:20 AM — Jun 29 12:20 AM, Vaasa, Weather by CustomWeather, © 2016

Note: Actual official high and low records may vary slightly from our data, if they occured in-between our weather recording intervals... More about our weather records

Advertising

Vaasa Weather History for the Previous 24 Hours

Scroll right to see more
 ConditionsComfort  
Time TempWeatherWind HumidityBarometerVisibility
12:20 AM
Wed, Jun 29
57 °FSunny.2 mph82%29.86 "Hg10 mi
11:50 PM
Tue, Jun 28
59 °FSunny.2 mph77%29.86 "Hg10 mi
11:20 PM61 °FSunny.3 mph72%29.86 "Hg10 mi
10:50 PM63 °FSunny.3 mph68%29.86 "Hg10 mi
10:20 PM64 °FSunny.6 mph68%29.86 "Hg10 mi
9:50 PM64 °FSunny.3 mph68%29.86 "Hg10 mi
9:20 PM66 °FPassing clouds.6 mph64%29.86 "HgN/A
8:50 PM66 °FSunny.6 mph60%29.86 "Hg10 mi
8:20 PM66 °FPassing clouds.3 mph60%29.86 "HgN/A
7:50 PM66 °FSunny.6 mph60%29.86 "Hg10 mi
7:20 PM66 °FPassing clouds.6 mph60%29.86 "HgN/A
6:50 PM68 °FPassing clouds.8 mph60%29.86 "HgN/A
6:20 PM68 °FPassing clouds.8 mph56%29.86 "HgN/A
5:50 PM68 °FPassing clouds.9 mph56%29.86 "HgN/A
5:20 PM68 °FSunny.13 mph53%29.86 "Hg10 mi
4:50 PM68 °FPassing clouds.9 mph60%29.86 "HgN/A
4:20 PM68 °FPassing clouds.10 mph60%29.86 "HgN/A
3:50 PM68 °FPassing clouds.9 mph60%29.83 "HgN/A
3:20 PM68 °FPassing clouds.8 mph60%29.83 "HgN/A
2:50 PM70 °FPassing clouds.9 mph53%29.83 "HgN/A
2:20 PM68 °FPassing clouds.8 mph53%29.83 "HgN/A
1:50 PM70 °FPassing clouds.13 mph57%29.83 "HgN/A
1:20 PM68 °FPassing clouds.13 mph60%29.83 "HgN/A
12:50 PM68 °FPassing clouds.13 mph56%29.83 "HgN/A
12:20 PM68 °FPassing clouds.12 mph60%29.80 "HgN/A
11:50 AM68 °FPassing clouds.10 mph60%29.80 "HgN/A
11:20 AM68 °FPassing clouds.9 mph64%29.80 "HgN/A
10:50 AM66 °FSunny.9 mph73%29.80 "Hg10 mi
10:20 AM64 °FPassing clouds.7 mph78%29.80 "HgN/A
9:50 AM64 °FPassing clouds.8 mph78%29.80 "HgN/A
9:20 AM63 °FPassing clouds.8 mph77%29.80 "HgN/A
8:50 AM63 °FSunny.7 mph77%29.77 "Hg10 mi
8:20 AM61 °FPassing clouds.6 mph83%29.77 "HgN/A
7:50 AM59 °FSunny.7 mph88%29.77 "Hg10 mi
7:20 AM59 °FSunny.6 mph82%29.77 "Hg10 mi
6:50 AM57 °FSunny.6 mph88%29.77 "Hg10 mi
6:20 AM57 °FSunny.7 mph88%29.77 "Hg10 mi
5:50 AM55 °FSunny.8 mph94%29.77 "Hg10 mi
5:20 AM55 °FSunny.7 mph88%29.77 "Hg10 mi
4:50 AM55 °FSunny.7 mph94%29.77 "Hg10 mi
4:20 AM55 °FClear.8 mph94%29.77 "Hg10 mi
3:50 AM55 °FClear.7 mph94%29.77 "Hg10 mi
3:20 AM55 °FClear.7 mph94%29.77 "Hg10 mi
2:50 AM55 °FClear.7 mph94%29.77 "Hg10 mi
2:20 AM55 °FClear.7 mph94%29.77 "Hg10 mi
1:50 AM55 °FClear.7 mph94%29.77 "Hg10 mi
1:20 AM57 °FPassing clouds.6 mph94%29.77 "HgN/A
Weather by CustomWeather, © 2016

See weather overviewHow to use our weather pages